Location: Wien
(48.2082°N, 16.3738°E)
Time: 08:36:08
(UTC+02:00)

Transit 4A - Pass Details

Date: 02 March 2024
Orbit: 871 x 971 km, 66.8° (Epoch: 24 April)

Event Time Altitude Azimuth Distance (km) Brightness Sun altitude
Rises 05:54:49 0° 322° (NW) 3,522 10.5 -7.2°
Reaches altitude 10° 05:58:15 10° 342° (NNW) 2,562 10.0 -6.6°
Maximum altitude 06:02:10 18° 24° (NNE) 2,043 10.0 -6.0°
Drops below altitude 10° 06:06:02 10° 65° (ENE) 2,531 11.3 -5.3°
Sets 06:09:23 0° 85° (E) 3,462 13.1 -4.8°
